Regional Weather Roundup
Issued by NWS State College, PA

Home | Current Version | Previous Version | Text Only | Print | Product List | Glossary On
Versions: 1 2 3 4 5 6 7 8 9 10 11 12 13 14 15 16 17 18 19 20 21 22 23 24 25 26 27 28 29 30 31 32 33 34 35 36 37 38 39 40 41 42 43 44 45 46 47 48 49 50
000
ASUS41 KCTP 310010
RWRCTP

REGIONAL WEATHER ROUNDUP
NATIONAL WEATHER SERVICE STATE COLLEGE PA
800 PM EDT SAT AUG 30 2014

Note: "fair" indicates few or no clouds below 12,000 feet with no
significant weather and/or obstructions to visibility.

* = STATION THAT DOES NOT REPORT PRECIPITATION /E.G. RAIN...SNOW...ETC/
    THUNDER OR FOG.

PAZ002>004-007>009-013>016-020>023-029>032-310100-
WESTERN PENNSYLVANIA

CITY           SKY/WX    TMP DP  RH WIND       PRES   REMARKS
ERIE           PTCLDY    83  65  54 S8        29.95R
MEADVILLE      PTCLDY    79  65  62 S6        30.01S
FRANKLIN*      PTCLDY    77  66  69 S9        30.04S
NEW CASTLE     FAIR      82  68  62 CALM      30.02R
BEAVER COUNTY  NOT AVBL
BUTLER*        CLEAR     81  66  61 S6        30.05S
PITTSBURGH INT MOCLDY    82  68  62 S6        30.03S
PITTSBURGH     CLEAR     81  65  58 S8        30.04S
INDIANA*       CLEAR     79  68  69 CALM      30.10S
LATROBE        PTCLDY    81  70  69 S6        30.07R
WASHINGTON CO* PTCLDY    77  70  78 S3        30.05S
$$

PAZ004>006-010>012-017>019-024>028-033>037-041-042-045-046-049>053-310100-
CENTRAL PENNSYLVANIA

CITY           SKY/WX    TMP DP  RH WIND       PRES   REMARKS
BRADFORD       MOCLDY    75  67  76 S8        30.08R
DUBOIS         MOCLDY    75  70  84 CALM      30.08R
CLEARFIELD     PTCLDY    73  68  84 S5        30.10R
JOHNSTOWN      PTCLDY    73  66  78 S14       30.14R
ALTOONA        MOCLDY    74  68  81 S10       30.13R
STATE COLLEGE  PTCLDY    72  66  83 CALM      30.12R
WILLIAMSPORT   CLOUDY    74  64  71 E8        30.09S
SELINSGROVE    CLOUDY    74  66  76 S3        30.12R
FT INDIANTOWN  CLOUDY    75  66  73 S5        30.14R
CAPITAL CITY   CLOUDY    76  66  71 SE12      30.12R
HARRISBURG     CLOUDY    76  66  71 SE8       30.11R
YORK           MOCLDY    73  66  78 SE5       30.12S
$$

PAZ038>040-043-044-047-048-054-055-060>062-067>071-310100-
EASTERN PENNSYLVANIA

CITY           SKY/WX    TMP DP  RH WIND       PRES   REMARKS
SCRANTON       MOCLDY    72  61  68 VRB3      30.14S
MOUNT POCONO   MOCLDY    66  61  84 S6        30.19F
ALLENTOWN      CLOUDY    75  62  64 S7        30.15S
QUAKERTOWN*    CLOUDY    73  63  68 MISG      30.16F
READING        CLOUDY    76  61  59 S9        30.12F
LANCASTER      CLOUDY    74  62  66 SE3       30.14S
COATESVILLE    CLOUDY    72  68  88 SE3       30.17S
POTTSTOWN      CLOUDY    75  63  66 VRB3      30.16F
BLUE BELL      CLOUDY    75  63  64 S3        30.15S
DOYLESTOWN     CLOUDY    73  63  70 S3        30.15S
WILLOW GROVE   NOT AVBL
NORTH PHILA    CLOUDY    77  61  57 CALM      30.17S
PHILADELPHIA   CLOUDY    76  63  64 SE6       30.16R
$$


USA.gov is the U.S. government's official web portal to all federal, state and local government web resources and services.